Regional Weather Roundup
Issued by NWS Sioux Falls, SD

Home | Current Version | Previous Version | Graphics & Text | Print | Product List | Glossary Off
Versions: 1 2 3 4 5 6 7 8 9 10 11 12 13 14 15 16 17 18 19 20 21 22 23 24 25 26 27 28 29 30 31 32 33 34 35 36 37 38 39 40 41 42 43 44 45 46 47 48 49 50

000
ASUS43 KFSD 302302
RWRFSD

WEATHER ROUNDUP FOR SE SOUTH DAKOTA/SW MINNESOTA/NW IOWA
NATIONAL WEATHER SERVICE SIOUX FALLS SD
500 PM CST FRI JAN 30 2015

NOTE: "FAIR" INDICATES FEW OR NO CLOUDS BELOW 12,000 FEET WITH NO
SIGNIFICANT WEATHER AND OR OBSTRUCTIONS TO VISIBILITY.


SDZ038>040-050-052>070-310000-
SOUTHEAST SOUTH DAKOTA

CITY           SKY/WX    TMP DP  RH WIND       PRES   REMARKS
CHAMBERLAIN    NOT AVBL
HURON          CLEAR     43  29  57 S6        30.14F
MADISON        FAIR      36  36 100 S9        30.17S
MITCHELL       CLEAR     46  29  51 S8        30.16F
SIOUX FALLS    MOCLDY    37  28  70 S15       30.20F
WINNER         FAIR      54  26  34 SW7       30.11F
YANKTON        PTCLDY    45  27  49 S15       30.20F
$$

MNZ071-072-080-081-089-090-097-098-310000-
SOUTHWEST MINNESOTA

CITY           SKY/WX    TMP DP  RH WIND       PRES   REMARKS
FAIRMONT       PTCLDY    30  21  69 S14       30.25F WCI  20
JACKSON        CLEAR     32  27  80 S15G21    30.24F WCI  22
LUVERNE        CLEAR     34  28  80 S14       30.22F WCI  24
MARSHALL       CLEAR     34  25  69 SW14G26   30.20R WCI  24
MONTEVIDEO     CLEAR     34  28  80 SW8       30.20S WCI  27
PIPESTONE      CLEAR     34  28  80 SW15      30.18S WCI  24
REDWOOD FALLS  CLEAR     32  25  75 S15       30.20F WCI  22
TRACY          CLEAR     34  28  79 S22       30.17F WCI  22
WINDOM         CLEAR     32  27  80 S12G17    30.22F WCI  23
WORTHINGTON    CLEAR     32  25  74 S17G24    30.22F WCI  21
$$

IAZ001>003-012>014-020>022-031-032-NEZ013-014-SDZ071-310000-
NORTHWEST IOWA

CITY           SKY/WX    TMP DP  RH WIND       PRES   REMARKS
ESTHERVILLE    CLEAR     30  24  78 S18       30.27F WCI  18
SIOUX CITY     PTCLDY    38  27  64 SE12      30.28F
SPENCER        CLEAR     34  25  69 S12       30.27F WCI  25
$$

ABBREVIATIONS USED IN REMARKS
   TC - TEMPERATURE IN CELSIUS
  WCI - WIND CHILL INDEX
   HX - HEAT INDEX
  VSB - VISIBILITY




USA.gov is the U.S. government's official web portal to all federal, state and local government web resources and services.